Location: Moscow
(55.7500°N, 37.5830°E)
Time: 09:23:42
(UTC+03:00)

Transit 4A - Pass Details

Date: 01 December 2021
Orbit: 863 x 981 km, 66.8° (Epoch: 23 January)

Event Time Altitude Azimuth Distance (km) Brightness Sun altitude
Exits shadow 05:51:40 35° 244° (WSW) 1,498 8.5 -21.6°
Drops below altitude 10° 05:57:19 10° 182° (S) 2,713 10.4 -20.8°
Sets 06:00:06 0° 173° (S) 3,665 11.2 -20.5°
